Total_Precipitation_Accumulation
0.00 0.01 0.05 0.12 0.22 0.42 0.50 0.18 0.06 0.04 0.03 0.02 0.02 0.01 0.02 0.04 0.09 0.12 0.02 0.00 0.00 0.00 0.00 0.01 0.01 0.01 0.01 0.02 0.03 0.05 0.06 0.07 0.07 0.06 0.05 0.03 0.02 0.02 0.01 0.01 0.01 0.01 0.02 0.02 0.03 0.02 0.02 0.02 0.01
0.00 0.00 0.03 0.07 0.23 0.53 0.57 0.23 0.06 0.03 0.03 0.03 0.02 0.01 0.00 0.01 0.00 0.00 0.00 0.00 0.00 0.00 0.00 0.00 0.01 0.01 0.02 0.02 0.03 0.04 0.05 0.06 0.06 0.05 0.04 0.03 0.02 0.01 0.01 0.01 0.01 0.02 0.03 0.03 0.03 0.02 0.02 0.01 0.01
0.00 0.00 0.01 0.04 0.12 0.30 0.33 0.14 0.05 0.04 0.04 0.03 0.02 0.01 0.00 0.00 0.00 0.00 0.00 0.00 0.00 0.00 0.00 0.01 0.01 0.02 0.03 0.02 0.03 0.03 0.04 0.05 0.05 0.04 0.03 0.03 0.02 0.02 0.02 0.02 0.02 0.03 0.04 0.05 0.04 0.03 0.02 0.02 0.01
0.00 0.00 0.00 0.01 0.03 0.09 0.14 0.08 0.06 0.08 0.07 0.04 0.04 0.01 0.01 0.01 0.01 0.00 0.00 0.00 0.00 0.00 0.00 0.01 0.02 0.02 0.02 0.02 0.03 0.03 0.03 0.04 0.04 0.04 0.04 0.03 0.03 0.03 0.03 0.03 0.03 0.04 0.05 0.07 0.06 0.04 0.03 0.02 0.02
0.00 0.00 0.00 0.01 0.02 0.03 0.06 0.08 0.14 0.14 0.09 0.07 0.06 0.03 0.01 0.01 0.01 0.00 0.00 0.00 0.00 0.00 0.00 0.01 0.02 0.02 0.02 0.02 0.03 0.04 0.05 0.05 0.05 0.04 0.04 0.03 0.04 0.04 0.05 0.05 0.05 0.05 0.07 0.09 0.09 0.09 0.05 0.03 0.02
0.00 0.00 0.00 0.00 0.02 0.03 0.05 0.09 0.16 0.18 0.10 0.08 0.10 0.07 0.02 0.01 0.01 0.01 0.01 0.00 0.00 0.00 0.01 0.02 0.02 0.03 0.03 0.03 0.04 0.05 0.06 0.06 0.06 0.05 0.05 0.05 0.06 0.07 0.08 0.09 0.08 0.09 0.10 0.11 0.11 0.10 0.10 0.07 0.04
0.00 0.00 0.00 0.00 0.01 0.04 0.08 0.11 0.17 0.18 0.13 0.13 0.16 0.12 0.07 0.03 0.02 0.02 0.01 0.01 0.01 0.01 0.01 0.03 0.03 0.04 0.04 0.06 0.07 0.06 0.07 0.08 0.08 0.08 0.07 0.07 0.07 0.08 0.08 0.10 0.10 0.11 0.12 0.13 0.13 0.13 0.13 0.12 0.09
0.00 0.00 0.00 0.00 0.01 0.03 0.08 0.15 0.20 0.21 0.27 0.18 0.16 0.18 0.19 0.06 0.04 0.04 0.03 0.03 0.03 0.03 0.02 0.04 0.05 0.07 0.07 0.06 0.07 0.07 0.08 0.09 0.09 0.09 0.09 0.09 0.10 0.10 0.12 0.12 0.13 0.14 0.15 0.16 0.18 0.20 0.21 0.19 0.16
0.00 0.00 0.00 0.00 0.00 0.02 0.10 0.21 0.24 0.15 0.18 0.22 0.26 0.30 0.26 0.12 0.07 0.07 0.07 0.08 0.07 0.06 0.06 0.06 0.07 0.07 0.09 0.10 0.12 0.15 0.17 0.19 0.19 0.21 0.20 0.19 0.22 0.27 0.33 0.28 0.28 0.29 0.36 0.39 0.38 0.38 0.43 0.41 0.29
0.00 0.00 0.00 0.00 0.00 0.02 0.11 0.27 0.35 0.22 0.19 0.30 0.30 0.36 0.36 0.19 0.13 0.13 0.15 0.14 0.15 0.15 0.13 0.13 0.13 0.13 0.15 0.17 0.24 0.38 0.44 0.55 0.54 0.59 0.62 0.63 0.57 0.48 0.40 0.43 0.56 0.61 0.76 0.87 0.96 1.08 0.96 0.76 0.57
0.00 0.00 0.00 0.00 0.00 0.04 0.10 0.11 0.18 0.26 0.38 0.51 0.57 0.50 0.32 0.25 0.22 0.24 0.27 0.25 0.27 0.30 0.23 0.20 0.21 0.23 0.28 0.33 0.38 0.50 0.59 0.79 0.86 0.82 0.93 1.05 0.95 0.77 0.64 0.72 0.92 1.02 1.19 1.28 1.57 1.74 1.24 1.16 1.22
0.00 0.00 0.00 0.00 0.00 0.01 0.05 0.09 0.15 0.36 0.57 0.62 0.53 0.54 0.37 0.34 0.31 0.31 0.39 0.40 0.45 0.42 0.37 0.40 0.43 0.41 0.43 0.53 0.59 0.57 0.58 0.68 0.80 0.90 1.01 1.19 1.12 1.02 1.02 1.07 1.10 1.30 1.43 1.66 1.71 1.83 1.82 1.84 1.74
0.00 0.00 0.00 0.00 0.00 0.00 0.02 0.08 0.14 0.27 0.39 0.33 0.19 0.28 0.37 0.36 0.37 0.44 0.52 0.54 0.58 0.61 0.65 0.68 0.72 0.74 0.78 0.81 0.78 0.61 0.59 0.61 0.68 0.82 0.92 1.21 1.43 1.40 1.50 1.34 1.29 1.15 1.43 1.76 1.96 2.03 2.18 2.27 2.23
0.00 0.00 0.01 0.01 0.01 0.01 0.02 0.04 0.14 0.27 0.28 0.17 0.10 0.13 0.25 0.33 0.34 0.42 0.61 0.70 0.72 0.84 1.00 1.05 1.13 1.16 1.13 1.03 0.90 0.80 0.75 0.74 0.77 0.88 1.08 1.55 1.72 1.62 1.68 1.63 1.53 1.30 1.43 1.75 2.10 2.17 2.38 2.32 2.33
0.00 0.02 0.06 0.04 0.02 0.01 0.03 0.15 0.21 0.18 0.15 0.12 0.11 0.11 0.16 0.25 0.33 0.50 0.69 0.80 0.92 1.13 1.34 1.49 1.60 1.54 1.46 1.35 1.15 0.97 0.83 0.78 0.90 1.11 1.32 1.62 1.79 1.88 2.05 1.94 1.62 1.46 1.64 1.82 1.84 1.95 2.42 2.24 2.15
0.01 0.04 0.19 0.11 0.03 0.03 0.07 0.35 0.37 0.18 0.11 0.12 0.13 0.15 0.21 0.30 0.36 0.47 0.62 0.83 1.11 1.45 1.84 2.13 2.24 2.24 2.16 1.85 1.54 1.34 1.23 1.20 1.30 1.40 1.38 1.36 1.52 1.71 1.88 1.62 1.31 1.47 1.75 1.87 1.77 1.77 2.12 2.17 2.14
0.04 0.05 0.13 0.12 0.06 0.05 0.12 0.44 0.44 0.23 0.17 0.17 0.19 0.25 0.33 0.38 0.45 0.54 0.65 0.90 1.31 1.79 2.31 2.77 2.95 2.79 2.55 2.04 1.65 1.38 1.44 1.48 1.48 1.41 1.23 1.09 1.03 1.08 1.19 1.03 0.97 1.21 1.48 1.48 1.31 1.43 1.69 1.77 1.83
0.02 0.05 0.10 0.12 0.09 0.09 0.19 0.40 0.49 0.35 0.30 0.30 0.32 0.35 0.38 0.40 0.47 0.56 0.73 0.95 1.32 1.86 2.43 2.85 3.09 2.80 2.31 1.98 1.80 1.54 1.44 1.39 1.38 1.23 1.02 0.83 0.77 0.75 0.83 0.82 0.79 0.88 0.92 0.94 1.09 1.24 1.39 1.28 1.34
0.02 0.04 0.11 0.12 0.09 0.17 0.29 0.51 0.61 0.49 0.43 0.44 0.45 0.49 0.38 0.38 0.43 0.55 0.77 1.03 1.50 2.17 2.81 3.06 2.85 2.23 1.82 1.57 1.44 1.26 1.11 1.01 0.94 0.87 0.78 0.69 0.69 0.64 0.64 0.61 0.63 0.69 0.68 0.68 0.82 0.95 0.95 0.78 0.94
0.03 0.06 0.13 0.12 0.08 0.08 0.23 0.50 0.56 0.55 0.53 0.45 0.45 0.42 0.31 0.36 0.49 0.76 1.09 1.49 1.93 2.23 2.43 2.37 2.01 1.45 1.11 0.90 0.77 0.64 0.55 0.54 0.54 0.51 0.51 0.53 0.54 0.54 0.53 0.50 0.48 0.48 0.52 0.53 0.59 0.70 0.70 0.62 0.73
0.06 0.06 0.11 0.14 0.09 0.09 0.25 0.58 0.68 0.61 0.52 0.39 0.29 0.28 0.36 0.53 0.86 1.39 1.85 2.04 2.02 1.95 1.68 1.28 0.94 0.69 0.59 0.46 0.39 0.30 0.25 0.24 0.25 0.27 0.30 0.33 0.33 0.33 0.33 0.32 0.32 0.34 0.39 0.42 0.48 0.56 0.59 0.52 0.51
0.07 0.05 0.03 0.04 0.07 0.24 0.36 0.69 0.73 0.68 0.59 0.38 0.37 0.42 0.51 0.72 1.12 1.59 1.89 1.84 1.60 1.28 0.89 0.59 0.47 0.38 0.33 0.28 0.27 0.25 0.20 0.19 0.20 0.21 0.23 0.23 0.22 0.23 0.23 0.21 0.21 0.22 0.25 0.33 0.35 0.44 0.54 0.53 0.43
0.04 0.03 0.03 0.05 0.11 0.21 0.33 0.53 0.70 0.69 0.71 0.37 0.31 0.34 0.43 0.65 0.85 0.94 0.96 0.90 0.73 0.53 0.48 0.45 0.40 0.40 0.38 0.32 0.29 0.25 0.21 0.19 0.20 0.21 0.21 0.24 0.25 0.23 0.23 0.22 0.20 0.21 0.21 0.24 0.28 0.36 0.46 0.52 0.47
0.03 0.04 0.09 0.15 0.25 0.47 0.48 0.57 0.75 0.74 0.64 0.32 0.17 0.21 0.37 0.48 0.49 0.41 0.31 0.26 0.24 0.22 0.23 0.25 0.28 0.36 0.40 0.38 0.32 0.29 0.24 0.21 0.19 0.18 0.18 0.20 0.23 0.25 0.25 0.25 0.26 0.26 0.26 0.26 0.26 0.28 0.33 0.45 0.53
0.03 0.07 0.26 0.51 0.71 0.69 0.40 0.43 0.73 0.72 0.45 0.21 0.10 0.09 0.14 0.27 0.35 0.36 0.31 0.23 0.19 0.15 0.14 0.13 0.14 0.17 0.20 0.23 0.24 0.24 0.24 0.22 0.19 0.17 0.15 0.16 0.17 0.20 0.22 0.23 0.25 0.27 0.30 0.30 0.28 0.28 0.28 0.36 0.46
0.04 0.04 0.12 0.23 0.26 0.30 0.30 0.68 0.86 0.47 0.24 0.12 0.05 0.03 0.08 0.16 0.21 0.24 0.22 0.18 0.14 0.10 0.08 0.06 0.07 0.08 0.08 0.09 0.10 0.12 0.15 0.16 0.18 0.21 0.17 0.17 0.18 0.19 0.20 0.20 0.19 0.22 0.27 0.31 0.34 0.32 0.33 0.36 0.38
0.03 0.02 0.02 0.04 0.06 0.17 0.34 0.62 0.52 0.26 0.18 0.07 0.03 0.02 0.04 0.08 0.10 0.10 0.09 0.07 0.06 0.05 0.05 0.04 0.03 0.03 0.03 0.04 0.05 0.06 0.09 0.13 0.15 0.17 0.17 0.17 0.22 0.21 0.20 0.20 0.20 0.22 0.24 0.28 0.32 0.32 0.34 0.37 0.38
0.03 0.02 0.02 0.02 0.05 0.11 0.25 0.54 0.54 0.28 0.15 0.04 0.02 0.02 0.03 0.05 0.06 0.06 0.05 0.04 0.03 0.02 0.02 0.02 0.02 0.02 0.01 0.01 0.02 0.02 0.04 0.07 0.10 0.11 0.13 0.15 0.16 0.19 0.20 0.20 0.19 0.20 0.21 0.23 0.26 0.28 0.35 0.42 0.47
0.03 0.02 0.02 0.02 0.03 0.04 0.15 0.31 0.21 0.13 0.06 0.02 0.01 0.01 0.02 0.03 0.03 0.03 0.02 0.02 0.02 0.01 0.01 0.02 0.02 0.02 0.02 0.01 0.01 0.01 0.03 0.04 0.06 0.10 0.13 0.15 0.13 0.13 0.14 0.16 0.18 0.19 0.21 0.25 0.31 0.34 0.38 0.48 0.60
0.02 0.02 0.03 0.03 0.02 0.01 0.03 0.10 0.07 0.06 0.03 0.01 0.00 0.00 0.00 0.00 0.01 0.01 0.01 0.01 0.01 0.01 0.01 0.02 0.02 0.02 0.02 0.02 0.02 0.01 0.01 0.02 0.04 0.07 0.10 0.11 0.12 0.12 0.12 0.13 0.14 0.14 0.15 0.21 0.31 0.42 0.43 0.46 0.55